Regional Weather Roundup
Issued by NWS Northern Indiana

Home | Current Version | Previous Version | Graphics & Text | Print | Product List | Glossary On
Versions: 1 2 3 4 5 6 7 8 9 10 11 12 13 14 15 16 17 18 19 20 21 22 23 24 25 26 27 28 29 30 31 32 33 34 35 36 37 38 39 40 41 42 43 44 45 46 47 48 49 50
000
ASUS43 KIWX 220300
RWRIWX

KIWX WEATHER ROUNDUP
NATIONAL WEATHER SERVICE NORTHERN INDIANA
1000 PM EST WED FEB 21 2018

NOTE: "FAIR" INDICATES FEW OR NO CLOUDS BELOW 12,000 FEET WITH NO
SIGNIFICANT WEATHER AND/OR OBSTRUCTIONS TO VISIBILITY.

* THESE STATIONS ARE NOT UNDER NWS QUALITY CONTROL. THEY ALSO MAY NOT
  REPORT WEATHER SUCH AS PRECIPITATION OR FOG.

INZ001>027-220400-
NORTHERN INDIANA

CITY           SKY/WX    TMP DP  RH WIND       PRES   REMARKS
MICHIGAN CITY* FAIR      30  27  86 N7        30.64R WCI  23
SOUTH BEND     FAIR      28  25  88 N9        30.61S WCI  19
GOSHEN         FAIR      33  29  85 VRB5      30.59R WCI  29
MONTICELLO*    CLOUDY    33  30  88 NE9       30.57F WCI  25
WARSAW*        FAIR      32  30  93 N5        30.59S WCI  27
AUBURN*        FAIR      34  32  93 NE8       30.59S WCI  27
FORT WAYNE     CLOUDY    38  33  82 N8        30.59R
PERU/GRISSOM   CLOUDY    35  35 100 NE13      30.55F WCI  26

$$
INZ028>050-220400-
CENTRAL INDIANA

CITY           SKY/WX    TMP DP  RH WIND       PRES   REMARKS
LAFAYETTE      MOCLDY    34  30  85 NE9       30.56S WCI  27
KOKOMO*        CLOUDY    35  33  92 NE12      30.56S WCI  27
MUNCIE*        CLOUDY    40  36  86 N12       30.54R
INDIANAPOLIS   LGT RAIN  37  35  92 N14       30.52R

$$
MIZ043>046-050>051-056>058-064>065-071>073-077>080-220400-
SOUTHWEST LOWER MICHIGAN

CITY           SKY/WX    TMP DP  RH WIND       PRES   REMARKS
BATTLE CREEK   FAIR      31  27  85 N3        30.62R
BENTON HARBOR  FAIR      30  23  75 VRB3      30.64S
COLDWATER*     FAIR      33  32  96 N5        30.60S WCI  28
HILLSDALE*     CLOUDY    32  28  86 CALM      30.59R
HOLLAND        FAIR      28  21  75 N5        30.64F WCI  23
GRAND RAPIDS   CLOUDY    30  22  72 N6        30.64R WCI  24
KALAMAZOO      FAIR      32  27  81 N5        30.61S WCI  27
THREE RIVERS*  FAIR      33  29  87 CALM      30.61F

$$
OHZ001>008-015>018-024>025-220400-
NORTHWEST OHIO

CITY           SKY/WX    TMP DP  RH WIND       PRES   REMARKS
DEFIANCE       CLOUDY    37  34  89 NE6       30.60R
FINDLAY        LGT RAIN  36  31  82 E10       30.56F
TOLEDO EXPRESS CLOUDY    35  33  92 E7        30.61R WCI  29
TOLEDO METCALF FAIR      35  30  82 E9        30.62R WCI  28
LIMA           LGT RAIN  36  35  96 E12       30.53F

$$
AND FOR LAKE MICHIGAN COASTAL AND OPEN LAKE BUOY OBSERVATIONS

STATION/POSITION TEMP    WIND        PRES    VSBY  WAVE
                 AIR SEA DIR/SP/G                  HT/PER
                 (F)     (DEG/KT/KT) (MB)    (MI)  (FT/S)
CALUMET HARBOR    29      20/ 11/ 16 1036.6
MICHIGAN CITY     30      30/ 17/ 18   N/A

$$
&&




USA.gov is the U.S. government's official web portal to all federal, state and local government web resources and services.